Regional Weather Roundup
Issued by NWS

Home | Current Version | Previous Version | Graphics & Text | Print | Product List | Glossary On
Versions: 1 2 3 4 5 6 7 8 9 10 11 12 13 14 15 16 17 18 19 20 21 22 23 24 25 26 27 28 29 30 31 32 33 34 35 36 37 38 39 40 41 42 43 44 45 46 47 48 49 50
000
ASUS43 KMKX 031910
RWRWI

WISCONSIN REGIONAL WEATHER ROUNDUP
NATIONAL WEATHER SERVICE MILWAUKEE/SULLIVAN WI
100 PM CST TUE MAR 03 2015

NOTE: "FAIR" INDICATES FEW OR NO CLOUDS BELOW 12,000 FEET WITH NO
SIGNIFICANT WEATHER AND/OR OBSTRUCTIONS TO VISIBILITY.

WIZ001-002-006>008-014>016-023>028-032000-
NORTHWEST WISCONSIN

CITY           SKY/WX    TMP DP  RH WIND       PRES   REMARKS
SUPERIOR ARPT  LGT SNOW  26  20  80 W12       29.61F WCI  15
ASHLAND        LGT SNOW  27  20  75 W13       29.58F WCI  16
HAYWARD        LGT SNOW  25  19  78 W9        29.58F WCI  15
SIREN          LGT SNOW  26  20  77 W13G18    29.63S WCI  15
CUMBERLAND     LGT SNOW  27  19  74 W16       29.60F WCI  14
RICE LAKE      CLOUDY    27  21  76 W13       29.62F WCI  17
CHETEK         CLOUDY    28  21  75 W8        29.60F HAZE    WCI  20
LADYSMITH      LGT SNOW  27  20  74 W10       29.59F WCI  17
EAU CLAIRE     NOT AVBL
MENOMONIE      FLURRIES  31  22  69 W15       29.63F WCI  20
NEW RICHMOND   MIX PCPN  28  22  78 W18G25    29.65R WCI  15
OSCEOLA        MIX PCPN  29  22  77 W9        29.69R WCI  20
$$

WIZ003>005-009-010-017-018-032000-
NORTH CENTRAL WISCONSIN

CITY           SKY/WX    TMP DP  RH WIND       PRES   REMARKS
MANITOWISH WTR LGT SNOW  22  18  81 SW13      29.54F WCI  10
ARBOR VITAE    LGT SNOW  23  18  80 SW10      29.54F WCI  13
WOODRUFF       LGT SNOW  23  18  80 SW10      29.54F WCI  13
RHINELANDER    LGT SNOW  23  16  74 W10G20    29.54F WCI  12
EAGLE RIVER    LGT SNOW  22  16  75 W12       29.53F WCI  11
LAND O LAKES   LGT SNOW  24  18  79 W7        29.53F WCI  16
PHILLIPS       LGT SNOW  24  18  75 W9        29.55F WCI  15
TOMAHAWK       LGT SNOW  24  18  76 W7        29.56F WCI  16
MEDFORD        LGT SNOW  24  18  76 W8        29.58F WCI  15
MERRILL        CLOUDY    25  19  78 W10       29.57F WCI  14
$$

WIZ029-030-035-036-043>047-032000-
CENTRAL WISCONSIN

CITY           SKY/WX    TMP DP  RH WIND       PRES   REMARKS
WAUSAU         CLOUDY    24  18  77 W13       29.56S WCI  12
MOSINEE        LGT SNOW  25  21  86 W12       29.58F WCI  14
MARSHFIELD     CLOUDY    25  19  78 W13       29.58F WCI  14
STEVENS POINT  MIX PCPN  23  20  90 W8        29.58F WCI  14
WAUPACA        MIX PCPN  28  24  86 SW7       29.60F WCI  21
WAUTOMA        NOT AVBL
WISC RAPIDS    CLOUDY    25  21  85 W9        29.61F WCI  15
CAMP DOUGLAS   NOT AVBL
$$

WIZ011>013-019>022-031-037>040-048>050-032000-
NORTHEAST WISCONSIN

CITY           SKY/WX    TMP DP  RH WIND       PRES   REMARKS
ANTIGO         CLOUDY    23  19  84 SW10      29.54F FOG     WCI  12
SHAWANO        MIX PCPN  28  25  87 SW8       29.59F WCI  20
OCONTO         CLOUDY    28  27  93 SW8       29.58F WCI  20
STURGEON BAY   CLOUDY    28  25  86 S10       29.58F WCI  19
GREEN BAY      LGT SNOW  27  25  92 SW10      29.57F FOG     WCI  17
MANITOWOC      MIX PCPN  30  28  93 SW12      29.58F FOG     WCI  21
APPLETON       CLOUDY    27  25  93 SW12G17   29.57F FOG     WCI  16
CLINTONVILLE   MIX PCPN  27  25  93 SW6       29.57F WCI  20
OSHKOSH        CLOUDY    28  24  85 W10G18    29.58F FOG     WCI  19
$$

WIZ032>034-041-042-053>061-032000-
SOUTHWEST WISCONSIN

CITY           SKY/WX    TMP DP  RH WIND       PRES   REMARKS
LA CROSSE      CLOUDY    31  24  75 NW12      29.65F WCI  22
SPARTA         CLOUDY    27  25  93 W8        29.65S WCI  18
VIROQUA        CLOUDY    27  27 100 W14       29.62F WCI  16
BOSCOBEL       CLOUDY    31  26  82 W8        29.65F WCI  23
PRAIRIE DU CHI CLOUDY    29  27  93 CALM      29.67S FOG
PLATTEVILLE    CLOUDY    32  30  94 SW14      29.64F WCI  22
$$

WIZ056-057-062-063-064-067-068-032000-
SOUTH CENTRAL WISCONSIN

CITY           SKY/WX    TMP DP  RH WIND       PRES   REMARKS
REEDSBURG      CLOUDY    28  25  91 W13       29.61F WCI  17
BARABOO/DELLS  CLOUDY    27  25  91 W8G16     29.60F WCI  19
LONE ROCK      NOT AVBL
MINERAL POINT  CLOUDY    32  30  93 W13       29.62F FOG     WCI  22
MADISON        CLOUDY    31  27  85 VRB5      29.62F WCI  26
MIDDLETON      CLOUDY    32  29  88 W13       29.62S WCI  22
WATERTOWN      CLOUDY    31  31 100 SW12G17   29.60F FOG     WCI  21
MONROE         CLOUDY    32  30  93 SW15      29.61F FOG     WCI  22
JANESVILLE     CLOUDY    34  30  86 SW15      29.63F FOG     WCI  24
$$

WIZ051-052-058>065-066-070>072-032000-
SOUTHEAST WISCONSIN

CITY           SKY/WX    TMP DP  RH WIND       PRES   REMARKS
MILWAUKEE      CLOUDY    31  27  85 W12       29.61F FOG     WCI  22
WAUKESHA       CLOUDY    28  27  93 SW12      29.60F FOG     WCI  18
MILWAUKEE/TIMM CLOUDY    30  27  86 MISG      29.62F FOG
RACINE         CLOUDY    32  29  88 SW8G20    29.63F FOG     WCI  25
BURLINGTON     CLOUDY    30  28  92 SW14      29.62F FOG     WCI  20
KENOSHA        FRZ DRZL  32  30  92 W16G28    29.62S VSB 1   WCI  21
FOND DU LAC    CLOUDY    29  25  85 SW10      29.58F WCI  20
SHEBOYGAN      CLOUDY    29  27  92 SW10      29.57F FOG     WCI  20
WEST BEND      MIX PCPN  30  28  93 SW9       29.60F WCI  22
JUNEAU         CLOUDY    28  27  94 SW10      29.61F FOG     WCI  19
$$

LSZ147-162-032000-
LAKE SUPERIOR

STATION/POSITION TIME  TEMP    WIND        PRES    WAVE
                       AIR SEA DIR/SP/G            HT/PER
                 (UTC) (F)     (DEG/KT/KT) (MB)    (FT/S)
DEVILS ISLAND    1900   24     240/ 23/ 27 1001.6F
PORT WING        1800   25     250/  9/ 14 1002.7
SAXON HARBOR     1820   25     210/  7/ 14 1002.0F
$$

LMZ867-665-643>646-032000-
LAKE MICHIGAN

STATION/POSITION TIME  TEMP    WIND        PRES    WAVE
                       AIR SEA DIR/SP/G            HT/PER
                 (UTC) (F)     (DEG/KT/KT) (MB)    (FT/S)
NORTHPORT PIER   1807   27     160/ 10/ 22 1002.7F
SISTER BAY       1743   29     180/ 16/ 20   N/A
KEWAUNEE LAKESHO 1800   29     200/ 15/ 19 1002.4F
SHEBOYGAN LAKESH 1800   30     200/  7/  8 1003.8F
PORT WASHINGTON  1840   31     240/  2/  4 1003.4F
MILWAUKEE LAKESH 1800   31     230/  8/ 12   N/A
$$

TC  - TEMPERATURE IN CELSIUS
VSB - VISIBILITY IN STATUTE MILES
WCI - WIND CHILL INDEX
HX  - HEAT INDEX




USA.gov is the U.S. government's official web portal to all federal, state and local government web resources and services.